User: anonymous   Login
Location: Gombori
(14.9797°N, 2.9419°W)
Time: 12:11:18
(UTC+00:00)
Language:

deb HAPS - Orbit

View from above orbital plane
View from above orbital plane
View from above satellite
View from above satellite

Ground track
Ground track

The orbit data is extracted from the following two-line orbital elements,

1 24985U 94029ACT 22148.91651051  .00000922  00000-0  30687-3 0  9997
2 24985  81.5220  27.4483 0657939 262.0435  90.5597 13.56574439397480
Epoch (UTC): 28 May 2022 21:59:46
Eccentricity: 0.0657939
inclination: 81.5220°
perigee height: 559 km
apogee height: 1537 km
right ascension of ascending node: 27.4483°
argument of perigee: 262.0435°
revolutions per day: 13.56574439
mean anomaly at epoch: 90.5597°
orbit number at epoch: 39748

The dashed part of the orbit path shows where the satellite is in the earth's shadow,  

DLR